INTELSAT 33E DEB, 61993

Orbit data source: Space-Track

INTELSAT 33E DEB, 61993 is space debris in GEO originally from a launch on Wed, 24 Aug 2016 UTC launched from the French Guiana (FRGUI). Debris objects in space refer to the collection of defunct objects orbiting the Earth. Examples of debris include non-operational satellites, rocket bodies, and fragments generated from explosions, collisions, or faulty payload assembly.

Loading next visibility...
Identifier
61993, 2016-053K
Orbit
GEO
Country
Flag of USUS / ITSO
Related business
Manufacturer
Boeing/ES
Mission
Spacecraft
Bus & Motor
Unknown
Mass
Unknown
Launch date (UTC)
2016-08-24 (10 years ago)
Launch vehicle
Unknown
Launch site
French Guiana (FRGUI)
Object type
Payload
Rocket body
Debris
Shape & HBR
Unknown shape, 1.1 m
Radar Cross Section
RCS unknown

Expand to show TLE details & history
Last TLE update: 23 hours ago

TLE from 23 hours ago
0 INTELSAT 33E DEB
1 61993U 16053K   26165.69677992 -.00000259  00000-0  00000+0 0  9994
2 61993   1.4643  75.5555 0096148 317.3415  40.8753  1.01203363  6116
Epoch: 2026-06-14T16:43Z
TLE epoch observation values (Epoch: 2026-06-14T16:43:21.785Z)
Latitude
-0°
Longitude
-79.3392°
Altitude
35,222.732 km
Speed
3.107 km/s
True Right ascension
04h 57m 58s
True Declination
0° 00' 00"
Sunlit
Object was in daylight at epoch
Visualization orbit readout
Latitude
Unknown
Longitude
Unknown
Altitude
Unknown
Speed
Unknown
Apparent Right ascension
Unknown
Apparent Declination
Unknown
Sunlit
N/A
Visualization observer readout
Local Sidereal Time
02:36:52
Azimuth
Unknown
Elevation
Unknown
Doppler factor
Unknown
Orbital elements
Apogee altitude
35,931.445 km
Perigee altitude
35,125.597 km
Semi-major axis
41,906.658 km
Eccentricity
0.00961
Inclination
1.4643°
RAAN
75.5555°
Arg. of periapsis
317.3415°
True anomaly
41.60291°
Mean anomaly
40.8753°
Eccentric anomaly
41.23844°
Mean motion
0.253 °/min
Orbital period
1,422.93 mins
BSTAR
0
Loading maneuver chart data...
Computing Atmospheric mass density...
Loading historical data...
Loading historical data...
Loading historical data...
Loading historical data...
Loading historical data...
Loading historical data...
Loading historical data...

Documentation

Showing up to 5 results
|